{"data":{"norad_id":85004,"epoch":"2026-05-23T16:26:07.827648Z","epoch_age_seconds":195634,"freshness":"STALE","line1":"1 85004U          26143.68481282  .00000679  00000+0  21980-3 0  9996","line2":"2 85004  98.4420 117.5923 0047666  36.8787 144.8064 14.41495476654223","mean_motion":14.41495476,"eccentricity":0.0047666,"inclination_deg":98.442,"raan_deg":117.5923,"arg_perigee_deg":36.8787,"mean_anomaly_deg":144.8064,"bstar":0.0002198,"rev_number":65422,"period_min":99.896255241525,"perigee_km":719.56772344712,"apogee_km":787.55563328773,"semimajor_km":7131.6986783674,"source":"CELESTRAK","updated_at":"2026-05-25T13:38:11.428305Z"}}